Time,TemperatureF,DewpointF,PressureIn,WindDirection,WindDirectionDegrees,WindSpeedMPH,WindSpeedGustMPH,Humidity,HourlyPrecipIn,Conditions,Clouds,dailyrainin,SolarRadiationWatts/m^2,SoftwareType,DateUTC
2013-05-22 00:01:00,47.0,41.0,-100.00,SE,128,5.0,26.0,79,0.02,,,0.03,0.000000,,2013-05-22 06:01:00,
2013-05-22 00:32:00,48.0,42.0,-100.00,SSE,164,4.0,9.0,79,0.00,,,0.03,0.000000,,2013-05-22 06:32:00,
2013-05-22 00:42:00,48.0,42.0,-100.00,SSE,164,4.0,9.0,79,0.00,,,0.03,0.000000,,2013-05-22 06:42:00,
2013-05-22 00:52:00,48.0,42.0,-100.00,SSE,164,4.0,9.0,79,0.00,,,0.03,0.000000,,2013-05-22 06:52:00,
2013-05-22 01:01:00,48.0,42.0,-100.00,SSE,164,4.0,9.0,79,0.00,,,0.03,0.000000,,2013-05-22 07:01:00,
2013-05-22 01:32:00,47.0,40.0,-100.00,ESE,112,5.0,7.0,76,0.00,,,0.03,0.000000,,2013-05-22 07:32:00,
2013-05-22 01:42:00,47.0,40.0,-100.00,ESE,112,5.0,7.0,76,0.00,,,0.03,0.000000,,2013-05-22 07:42:00,
2013-05-22 01:52:00,47.0,40.0,-100.00,ESE,112,5.0,7.0,76,0.00,,,0.03,0.000000,,2013-05-22 07:52:00,
2013-05-22 02:02:00,47.0,40.0,-100.00,ESE,112,5.0,7.0,76,0.00,,,0.03,0.000000,,2013-05-22 08:02:00,
2013-05-22 02:32:00,46.0,41.0,-100.00,ESE,112,7.0,11.0,81,0.00,,,-99.99,0.000000,,2013-05-22 08:32:00,
2013-05-22 02:42:00,46.0,41.0,-100.00,ESE,112,7.0,11.0,81,0.00,,,-99.99,0.000000,,2013-05-22 08:42:00,
2013-05-22 02:52:00,46.0,41.0,-100.00,ESE,112,7.0,11.0,81,0.00,,,-99.99,0.000000,,2013-05-22 08:52:00,
2013-05-22 03:01:00,46.0,41.0,-100.00,ESE,112,7.0,11.0,81,0.00,,,-99.99,0.000000,,2013-05-22 09:01:00,
2013-05-22 03:33:00,46.0,40.0,-100.00,ESE,121,3.0,8.0,78,0.00,,,0.03,0.000000,,2013-05-22 09:33:00,
2013-05-22 03:42:00,46.0,40.0,-100.00,ESE,121,3.0,8.0,78,0.00,,,0.03,0.000000,,2013-05-22 09:42:00,
2013-05-22 03:53:00,46.0,40.0,-100.00,ESE,121,3.0,8.0,78,0.00,,,0.03,0.000000,,2013-05-22 09:53:00,
2013-05-22 04:02:00,46.0,40.0,-100.00,ESE,121,3.0,8.0,78,0.00,,,0.03,0.000000,,2013-05-22 10:02:00,
2013-05-22 04:33:00,46.0,42.0,-100.00,NNE,16,2.0,7.0,85,0.02,,,0.05,0.000000,,2013-05-22 10:33:00,
2013-05-22 04:42:00,46.0,42.0,-100.00,NNE,16,2.0,7.0,85,0.02,,,0.05,0.000000,,2013-05-22 10:42:00,
2013-05-22 04:52:00,46.0,42.0,-100.00,NNE,16,2.0,7.0,85,0.02,,,0.05,0.000000,,2013-05-22 10:52:00,
2013-05-22 05:02:00,46.0,42.0,-100.00,NNE,16,2.0,7.0,85,0.02,,,0.05,0.000000,,2013-05-22 11:02:00,
2013-05-22 05:32:00,46.0,41.0,-100.00,SSE,164,2.0,6.0,82,0.00,,,-99.99,0.000000,,2013-05-22 11:32:00,
2013-05-22 05:42:00,46.0,41.0,-100.00,SSE,164,2.0,6.0,82,0.00,,,-99.99,0.000000,,2013-05-22 11:42:00,
2013-05-22 05:52:00,46.0,41.0,-100.00,SSE,164,2.0,6.0,82,0.00,,,-99.99,0.000000,,2013-05-22 11:52:00,
2013-05-22 06:02:00,46.0,41.0,-100.00,SSE,164,2.0,6.0,82,0.00,,,-99.99,0.000000,,2013-05-22 12:02:00,
2013-05-22 06:32:00,45.0,39.0,-100.00,WSW,240,6.0,9.0,79,0.00,,,0.05,1.000000,,2013-05-22 12:32:00,
2013-05-22 06:42:00,45.0,39.0,-100.00,WSW,240,6.0,9.0,79,0.00,,,0.05,1.000000,,2013-05-22 12:42:00,
2013-05-22 06:52:00,45.0,39.0,-100.00,WSW,240,6.0,9.0,79,0.00,,,0.05,1.000000,,2013-05-22 12:52:00,
2013-05-22 07:01:00,45.0,39.0,-100.00,WSW,240,6.0,9.0,79,0.00,,,0.05,1.000000,,2013-05-22 13:01:00,
2013-05-22 08:32:00,44.0,38.0,-100.00,West,262,15.0,24.0,79,-99.99,,,0.05,158.000000,,2013-05-22 14:32:00,
2013-05-22 08:42:00,44.0,38.0,-100.00,West,262,15.0,24.0,79,-99.99,,,0.05,158.000000,,2013-05-22 14:42:00,
2013-05-22 08:52:00,44.0,38.0,-100.00,West,262,15.0,24.0,79,-99.99,,,0.05,158.000000,,2013-05-22 14:52:00,
2013-05-22 09:01:00,44.0,38.0,-100.00,West,262,15.0,24.0,79,-99.99,,,0.05,158.000000,,2013-05-22 15:01:00,
2013-05-22 09:33:00,46.0,38.0,-100.00,West,265,12.0,27.0,73,0.00,,,-99.99,362.000000,,2013-05-22 15:33:00,
2013-05-22 09:43:00,46.0,38.0,-100.00,West,265,12.0,27.0,73,0.00,,,-99.99,362.000000,,2013-05-22 15:43:00,
2013-05-22 09:53:00,46.0,38.0,-100.00,West,265,12.0,27.0,73,0.00,,,-99.99,362.000000,,2013-05-22 15:53:00,
2013-05-22 10:02:00,46.0,38.0,-100.00,West,265,12.0,27.0,73,0.00,,,-99.99,362.000000,,2013-05-22 16:02:00,
2013-05-22 10:33:00,44.0,36.0,-100.00,West,263,14.0,21.0,72,0.00,,,0.05,334.000000,,2013-05-22 16:33:00,
2013-05-22 10:42:00,44.0,36.0,-100.00,West,263,14.0,21.0,72,0.00,,,0.05,334.000000,,2013-05-22 16:42:00,
2013-05-22 10:52:00,44.0,36.0,-100.00,West,263,14.0,21.0,72,0.00,,,0.05,334.000000,,2013-05-22 16:52:00,
2013-05-22 11:02:00,44.0,36.0,-100.00,West,263,14.0,21.0,72,0.00,,,0.05,334.000000,,2013-05-22 17:02:00,
2013-05-22 11:33:00,45.0,35.0,-100.00,West,264,13.0,23.0,69,0.00,,,0.05,432.000000,,2013-05-22 17:33:00,
2013-05-22 11:42:00,45.0,35.0,-100.00,West,264,13.0,23.0,69,0.00,,,0.05,432.000000,,2013-05-22 17:42:00,
2013-05-22 11:53:00,45.0,35.0,-100.00,West,264,13.0,23.0,69,0.00,,,0.05,432.000000,,2013-05-22 17:53:00,
2013-05-22 12:02:00,45.0,35.0,-100.00,West,264,13.0,23.0,69,0.00,,,0.05,432.000000,,2013-05-22 18:02:00,
2013-05-22 12:34:00,49.0,37.0,-100.00,West,268,14.0,23.0,62,0.00,,,0.05,472.000000,,2013-05-22 18:34:00,
2013-05-22 12:42:00,49.0,37.0,-100.00,West,268,14.0,23.0,62,0.00,,,0.05,472.000000,,2013-05-22 18:42:00,
2013-05-22 12:52:00,49.0,37.0,-100.00,West,268,14.0,23.0,62,0.00,,,0.05,472.000000,,2013-05-22 18:52:00,
2013-05-22 13:02:00,49.0,37.0,-100.00,West,268,14.0,23.0,62,0.00,,,0.05,472.000000,,2013-05-22 19:02:00,
2013-05-22 13:32:00,50.0,37.0,-100.00,West,273,15.0,21.0,60,0.00,,,0.05,703.000000,,2013-05-22 19:32:00,
2013-05-22 13:42:00,50.0,37.0,-100.00,West,273,15.0,21.0,60,0.00,,,0.05,703.000000,,2013-05-22 19:42:00,
2013-05-22 13:52:00,50.0,37.0,-100.00,West,273,15.0,21.0,60,0.00,,,0.05,703.000000,,2013-05-22 19:52:00,
2013-05-22 14:01:00,50.0,37.0,-100.00,West,273,15.0,21.0,60,0.00,,,0.05,703.000000,,2013-05-22 20:01:00,
2013-05-22 14:32:00,48.0,36.0,-100.00,West,268,16.0,24.0,62,0.00,,,0.05,431.000000,,2013-05-22 20:32:00,
2013-05-22 14:42:00,48.0,36.0,-100.00,West,268,16.0,24.0,62,0.00,,,0.05,431.000000,,2013-05-22 20:42:00,
2013-05-22 14:52:00,48.0,36.0,-100.00,West,268,16.0,24.0,62,0.00,,,0.05,431.000000,,2013-05-22 20:52:00,
2013-05-22 15:01:00,48.0,36.0,-100.00,West,268,16.0,24.0,62,0.00,,,0.05,431.000000,,2013-05-22 21:01:00,
2013-05-22 15:33:00,43.0,36.0,-100.00,West,261,15.0,31.0,76,0.00,,,0.05,213.000000,,2013-05-22 21:33:00,
2013-05-22 15:42:00,43.0,36.0,-100.00,West,261,15.0,31.0,76,0.00,,,0.05,213.000000,,2013-05-22 21:42:00,
2013-05-22 15:53:00,43.0,36.0,-100.00,West,261,15.0,31.0,76,0.00,,,0.05,213.000000,,2013-05-22 21:53:00,
2013-05-22 16:02:00,43.0,36.0,-100.00,West,261,15.0,31.0,76,0.00,,,0.05,213.000000,,2013-05-22 22:02:00,
2013-05-22 17:32:00,38.0,31.0,-100.00,West,263,17.0,28.0,75,-99.99,,,0.05,151.000000,,2013-05-22 23:32:00,
2013-05-22 18:32:00,36.0,30.0,-100.00,West,265,18.0,29.0,79,0.02,,,0.07,85.000000,,2013-05-23 00:32:00,
2013-05-22 18:42:00,36.0,30.0,-100.00,West,265,18.0,29.0,79,0.02,,,0.07,85.000000,,2013-05-23 00:42:00,
2013-05-22 18:52:00,36.0,30.0,-100.00,West,265,18.0,29.0,79,0.02,,,0.07,85.000000,,2013-05-23 00:52:00,
2013-05-22 19:01:00,36.0,30.0,-100.00,West,265,18.0,29.0,79,0.02,,,0.07,85.000000,,2013-05-23 01:01:00,
2013-05-22 19:32:00,38.0,28.0,-100.00,West,268,16.0,27.0,67,0.00,,,0.07,222.000000,,2013-05-23 01:32:00,
2013-05-22 19:52:00,38.0,28.0,-100.00,West,268,16.0,27.0,67,0.00,,,0.07,222.000000,,2013-05-23 01:52:00,
2013-05-22 20:01:00,38.0,28.0,-100.00,West,268,16.0,27.0,67,0.00,,,0.07,222.000000,,2013-05-23 02:01:00,
2013-05-22 20:32:00,36.0,27.0,-100.00,West,268,17.0,25.0,70,0.00,,,0.07,62.000000,,2013-05-23 02:32:00,
2013-05-22 20:42:00,36.0,27.0,-100.00,West,268,17.0,25.0,70,0.00,,,0.07,62.000000,,2013-05-23 02:42:00,
2013-05-22 20:51:00,36.0,27.0,-100.00,West,268,17.0,25.0,70,0.00,,,0.07,62.000000,,2013-05-23 02:51:00,
2013-05-22 21:01:00,36.0,27.0,-100.00,West,268,17.0,25.0,70,0.00,,,0.07,62.000000,,2013-05-23 03:01:00,
2013-05-22 21:33:00,36.0,27.0,-100.00,West,266,12.0,24.0,69,0.00,,,0.07,13.000000,,2013-05-23 03:33:00,
2013-05-22 21:43:00,36.0,27.0,-100.00,West,266,12.0,24.0,69,0.00,,,0.07,13.000000,,2013-05-23 03:43:00,
2013-05-22 21:53:00,36.0,27.0,-100.00,West,266,12.0,24.0,69,0.00,,,0.07,13.000000,,2013-05-23 03:53:00,
2013-05-22 22:02:00,36.0,27.0,-100.00,West,266,12.0,24.0,69,0.00,,,0.07,13.000000,,2013-05-23 04:02:00,
2013-05-22 22:33:00,35.0,27.0,-100.00,WNW,297,10.0,20.0,73,0.00,,,0.06,0.000000,,2013-05-23 04:33:00,
2013-05-22 22:43:00,35.0,27.0,-100.00,WNW,297,10.0,20.0,73,0.00,,,0.06,0.000000,,2013-05-23 04:43:00,
2013-05-22 22:52:00,35.0,27.0,-100.00,WNW,297,10.0,20.0,73,0.00,,,0.06,0.000000,,2013-05-23 04:52:00,
2013-05-22 23:02:00,35.0,27.0,-100.00,WNW,297,10.0,20.0,73,0.00,,,0.06,0.000000,,2013-05-23 05:02:00,
2013-05-22 23:32:00,33.0,30.0,-100.00,North,358,6.0,11.0,88,0.00,,,0.04,0.000000,,2013-05-23 05:32:00,
2013-05-22 23:43:00,33.0,30.0,-100.00,North,358,6.0,11.0,88,0.00,,,0.04,0.000000,,2013-05-23 05:43:00,
2013-05-22 23:52:00,33.0,30.0,-100.00,North,358,6.0,11.0,88,0.00,,,0.04,0.000000,,2013-05-23 05:52:00,